Location: HF.RADOM.PL
(51.4000°N, 21.1600°E)
Time: 22:21:28
(UTC+02:00)

NOAA 18 - Visible Passes

Search period start: 28 September 2021 00:00
Search period end: 08 October 2021 00:00
Orbit: 840 x 860 km, 99.0° (Epoch: 28 September)

Date Brightness Start Highest point End Pass type
(mag) Time Alt. Az. Time Alt. Az. Time Alt. Az.
28 Sep 7.2 19:26:11 10° ENE 19:27:48 11° NE 19:29:27 10° NNE visible
28 Sep 5.6 21:07:36 47° NE 21:07:36 47° NE 21:12:31 10° N visible
28 Sep 6.9 22:49:37 28° WNW 22:49:37 28° WNW 22:53:02 10° NNW visible
29 Sep 5.8 20:55:38 39° NE 20:55:38 39° NE 21:00:28 10° N visible
29 Sep 6.7 22:37:39 33° WNW 22:37:39 33° WNW 22:41:14 10° NNW visible
30 Sep 6.0 20:43:40 33° ENE 20:43:40 33° ENE 20:48:24 10° N visible
30 Sep 6.5 22:25:40 37° NW 22:25:40 37° NW 22:29:23 10° NNW visible
01 Oct 6.3 20:31:43 28° ENE 20:31:43 28° ENE 20:36:19 10° N visible
01 Oct 6.3 22:13:42 42° NW 22:13:42 42° NW 22:17:31 10° NNW visible
02 Oct 6.5 20:19:44 24° ENE 20:19:55 24° NE 20:24:11 10° N visible
02 Oct 6.1 22:01:44 46° NNW 22:01:44 46° NNW 22:05:37 10° NNW visible
02 Oct 7.9 23:43:44 11° WNW 23:43:44 11° WNW 23:44:13 10° WNW visible
03 Oct 6.6 20:07:46 20° ENE 20:08:07 20° NE 20:12:01 10° N visible
03 Oct 6.0 21:49:47 48° NNW 21:49:47 48° NNW 21:53:41 10° NNW visible
03 Oct 7.8 23:31:46 13° WNW 23:31:46 13° WNW 23:32:59 10° NW visible
04 Oct 6.8 19:55:48 17° ENE 19:56:21 17° NE 19:59:47 10° NNE visible
04 Oct 5.9 21:37:48 47° N 21:37:48 47° N 21:41:43 10° NNW visible
04 Oct 7.6 23:19:48 16° WNW 23:19:48 16° WNW 23:21:29 10° NW visible
05 Oct 7.0 19:43:50 14° ENE 19:44:37 14° NE 19:47:28 10° NNE visible
05 Oct 6.0 21:25:50 44° N 21:25:50 44° N 21:29:44 10° N visible
05 Oct 7.5 23:07:50 18° NW 23:07:50 18° NW 23:09:51 10° NW visible
06 Oct 7.1 19:31:51 12° ENE 19:32:53 12° NE 19:34:58 10° NNE visible
06 Oct 6.0 21:13:52 40° NNE 21:13:52 40° NNE 21:17:43 10° N visible
06 Oct 7.4 22:55:52 21° NW 22:55:52 21° NW 22:58:09 10° NNW visible
07 Oct 7.2 19:20:30 10° NE 19:21:11 10° NE 19:21:51 10° NE visible
07 Oct 6.1 21:01:53 36° NNE 21:01:53 36° NNE 21:05:42 10° N visible
07 Oct 7.2 22:43:53 24° NW 22:43:53 24° NW 22:46:22 10° NNW visible
